Time,TemperatureF,DewpointF,PressureIn,WindDirection,WindDirectionDegrees,WindSpeedMPH,WindSpeedGustMPH,Humidity,HourlyPrecipIn,Conditions,Clouds,dailyrainin,SoftwareType,DateUTC
2013-06-07 00:01:00,52.0,36.0,30.43,SSE,157,0.0,0.0,55,0.00,,,0.00,Rainwise IP-100,2013-06-07 04:01:00,
2013-06-07 00:06:00,51.0,36.0,30.43,SSE,157,0.0,0.0,55,0.00,,,0.00,Rainwise IP-100,2013-06-07 04:06:00,
2013-06-07 00:11:00,51.0,36.0,30.43,SSE,157,0.0,0.0,55,0.00,,,0.00,Rainwise IP-100,2013-06-07 04:11:00,
2013-06-07 00:16:00,51.0,36.0,30.43,SSE,157,0.0,0.0,55,0.00,,,0.00,Rainwise IP-100,2013-06-07 04:16:00,
2013-06-07 00:21:00,51.0,36.0,30.43,SSE,157,0.0,0.0,55,0.00,,,0.00,Rainwise IP-100,2013-06-07 04:21:00,
2013-06-07 00:26:00,51.0,36.0,30.43,SSE,157,0.0,0.0,56,0.00,,,0.00,Rainwise IP-100,2013-06-07 04:26:00,
2013-06-07 00:31:00,51.0,37.0,30.43,SSE,157,0.0,0.0,57,0.00,,,0.00,Rainwise IP-100,2013-06-07 04:31:00,
2013-06-07 00:36:00,51.0,36.0,30.43,SSE,157,0.0,0.0,55,0.00,,,0.00,Rainwise IP-100,2013-06-07 04:36:00,
2013-06-07 00:41:00,52.0,37.0,30.43,SSE,157,0.0,0.0,57,0.00,,,0.00,Rainwise IP-100,2013-06-07 04:41:00,
2013-06-07 00:46:00,51.0,36.0,30.42,SSE,157,0.0,0.0,56,0.00,,,0.00,Rainwise IP-100,2013-06-07 04:46:00,
2013-06-07 00:51:00,51.0,36.0,30.42,NE,45,0.0,0.0,55,0.00,,,0.00,Rainwise IP-100,2013-06-07 04:51:00,
2013-06-07 00:56:00,52.0,37.0,30.43,East,90,0.0,0.0,56,0.00,,,0.00,Rainwise IP-100,2013-06-07 04:56:00,
2013-06-07 01:01:00,52.0,37.0,30.42,SSE,157,0.0,0.0,56,0.00,,,0.00,Rainwise IP-100,2013-06-07 05:01:00,
2013-06-07 01:06:00,52.0,37.0,30.42,SSE,157,0.0,0.0,57,0.00,,,0.00,Rainwise IP-100,2013-06-07 05:06:00,
2013-06-07 01:11:00,52.0,37.0,30.42,SSE,157,0.0,0.0,57,0.00,,,0.00,Rainwise IP-100,2013-06-07 05:11:00,
2013-06-07 01:16:00,52.0,37.0,30.43,SSE,157,0.0,0.0,57,0.00,,,0.00,Rainwise IP-100,2013-06-07 05:16:00,
2013-06-07 01:21:00,52.0,37.0,30.43,SSE,157,0.0,0.0,57,0.00,,,0.00,Rainwise IP-100,2013-06-07 05:21:00,
2013-06-07 01:26:00,52.0,37.0,30.43,SSE,157,0.0,0.0,57,0.00,,,0.00,Rainwise IP-100,2013-06-07 05:26:00,
2013-06-07 01:31:00,52.0,37.0,30.43,SSE,157,0.0,5.0,57,0.00,,,0.00,Rainwise IP-100,2013-06-07 05:31:00,
2013-06-07 01:36:00,51.0,36.0,30.43,SSE,157,0.0,0.0,56,0.00,,,0.00,Rainwise IP-100,2013-06-07 05:36:00,
2013-06-07 01:41:00,51.0,36.0,30.43,SE,135,0.0,3.0,55,0.00,,,0.00,Rainwise IP-100,2013-06-07 05:41:00,
2013-06-07 01:46:00,51.0,36.0,30.43,SW,225,0.0,0.0,55,0.00,,,0.00,Rainwise IP-100,2013-06-07 05:46:00,
2013-06-07 01:51:00,51.0,36.0,30.43,SE,135,0.0,2.0,55,0.00,,,0.00,Rainwise IP-100,2013-06-07 05:51:00,
2013-06-07 01:56:00,51.0,36.0,30.43,SE,135,0.0,0.0,55,0.00,,,0.00,Rainwise IP-100,2013-06-07 05:56:00,
2013-06-07 02:01:00,51.0,36.0,30.42,SE,135,0.0,0.0,55,0.00,,,0.00,Rainwise IP-100,2013-06-07 06:01:00,
2013-06-07 02:06:00,51.0,36.0,30.42,SE,135,0.0,0.0,55,0.00,,,0.00,Rainwise IP-100,2013-06-07 06:06:00,
2013-06-07 02:11:00,51.0,36.0,30.42,SE,135,0.0,0.0,55,0.00,,,0.00,Rainwise IP-100,2013-06-07 06:11:00,
2013-06-07 02:16:00,51.0,36.0,30.42,SE,135,0.0,0.0,55,0.00,,,0.00,Rainwise IP-100,2013-06-07 06:16:00,
2013-06-07 02:21:00,51.0,36.0,30.42,SE,135,0.0,0.0,55,0.00,,,0.00,Rainwise IP-100,2013-06-07 06:21:00,
2013-06-07 02:26:00,51.0,36.0,30.42,SE,135,0.0,0.0,55,0.00,,,0.00,Rainwise IP-100,2013-06-07 06:26:00,
2013-06-07 02:31:00,51.0,36.0,30.42,SE,135,0.0,0.0,55,0.00,,,0.00,Rainwise IP-100,2013-06-07 06:31:00,
2013-06-07 02:36:00,51.0,36.0,30.41,SE,135,0.0,0.0,55,0.00,,,0.00,Rainwise IP-100,2013-06-07 06:36:00,
2013-06-07 02:41:00,51.0,36.0,30.41,SE,135,0.0,0.0,55,0.00,,,0.00,Rainwise IP-100,2013-06-07 06:41:00,
2013-06-07 02:43:00,51.0,36.0,30.41,SE,135,0.0,0.0,55,0.00,,,0.00,Rainwise IP-100,2013-06-07 06:43:00,
2013-06-07 02:47:00,51.0,40.0,30.41,SE,135,0.0,0.0,65,0.00,,,0.00,Rainwise IP-100,2013-06-07 06:47:00,
2013-06-07 02:51:00,51.0,36.0,30.41,ESE,112,0.0,0.0,55,0.00,,,0.00,Rainwise IP-100,2013-06-07 06:51:00,
2013-06-07 02:56:00,51.0,36.0,30.41,SSE,157,0.0,0.0,54,0.00,,,0.00,Rainwise IP-100,2013-06-07 06:56:00,
2013-06-07 03:01:00,51.0,36.0,30.41,SSE,157,0.0,0.0,55,0.00,,,0.00,Rainwise IP-100,2013-06-07 07:01:00,
2013-06-07 03:06:00,51.0,36.0,30.41,SSE,157,0.0,0.0,55,0.00,,,0.00,Rainwise IP-100,2013-06-07 07:06:00,
2013-06-07 03:11:00,51.0,36.0,30.40,SSE,157,0.0,0.0,55,0.00,,,0.00,Rainwise IP-100,2013-06-07 07:11:00,
2013-06-07 03:18:00,51.0,36.0,30.40,SSE,157,0.0,0.0,55,0.00,,,0.00,Rainwise IP-100,2013-06-07 07:18:00,
2013-06-07 03:23:00,51.0,36.0,30.40,SSE,157,0.0,0.0,55,0.00,,,0.00,Rainwise IP-100,2013-06-07 07:23:00,
2013-06-07 03:28:00,51.0,36.0,30.40,SSE,157,0.0,0.0,55,0.00,,,0.00,Rainwise IP-100,2013-06-07 07:28:00,
2013-06-07 03:33:00,51.0,36.0,30.40,SSE,157,0.0,0.0,55,0.00,,,0.00,Rainwise IP-100,2013-06-07 07:33:00,
2013-06-07 03:38:00,51.0,36.0,30.40,SSE,157,0.0,0.0,55,0.00,,,0.00,Rainwise IP-100,2013-06-07 07:38:00,
2013-06-07 03:43:00,51.0,36.0,30.39,SSE,157,0.0,0.0,55,0.00,,,0.00,Rainwise IP-100,2013-06-07 07:43:00,
2013-06-07 03:48:00,51.0,36.0,30.39,SSE,157,0.0,0.0,55,0.00,,,0.00,Rainwise IP-100,2013-06-07 07:48:00,
2013-06-07 03:53:00,51.0,36.0,30.39,SSE,157,0.0,0.0,55,0.00,,,0.00,Rainwise IP-100,2013-06-07 07:53:00,
2013-06-07 03:58:00,51.0,36.0,30.39,SE,135,0.0,5.0,55,0.00,,,0.00,Rainwise IP-100,2013-06-07 07:58:00,
2013-06-07 04:03:00,51.0,36.0,30.39,East,90,2.0,3.0,55,0.00,,,0.00,Rainwise IP-100,2013-06-07 08:03:00,
2013-06-07 04:09:00,51.0,36.0,30.39,East,90,4.0,4.0,56,0.00,,,0.00,Rainwise IP-100,2013-06-07 08:09:00,
2013-06-07 04:14:00,52.0,38.0,30.39,NNE,22,2.0,5.0,58,0.00,,,0.00,Rainwise IP-100,2013-06-07 08:14:00,
2013-06-07 04:19:00,52.0,38.0,30.39,NNE,22,0.0,4.0,59,0.00,,,0.00,Rainwise IP-100,2013-06-07 08:19:00,
2013-06-07 04:24:00,52.0,39.0,30.39,NNE,22,0.0,0.0,61,0.00,,,0.00,Rainwise IP-100,2013-06-07 08:24:00,
2013-06-07 04:29:00,52.0,39.0,30.39,NNE,22,0.0,0.0,61,0.00,,,0.00,Rainwise IP-100,2013-06-07 08:29:00,
2013-06-07 04:34:00,51.0,38.0,30.39,NNE,22,0.0,0.0,61,0.00,,,0.00,Rainwise IP-100,2013-06-07 08:34:00,
2013-06-07 04:39:00,51.0,38.0,30.39,NNW,337,0.0,3.0,61,0.00,,,0.00,Rainwise IP-100,2013-06-07 08:39:00,
2013-06-07 04:44:00,51.0,38.0,30.39,NNW,337,0.0,3.0,61,0.00,,,0.00,Rainwise IP-100,2013-06-07 08:44:00,
2013-06-07 04:49:00,51.0,38.0,30.39,NNW,337,0.0,0.0,61,0.00,,,0.00,Rainwise IP-100,2013-06-07 08:49:00,
2013-06-07 04:54:00,51.0,38.0,30.39,NNW,337,0.0,0.0,61,0.00,,,0.00,Rainwise IP-100,2013-06-07 08:54:00,
2013-06-07 04:59:00,51.0,38.0,30.39,NNW,337,0.0,0.0,60,0.00,,,0.00,Rainwise IP-100,2013-06-07 08:59:00,
2013-06-07 05:11:00,51.0,38.0,30.39,NNW,337,0.0,0.0,60,0.00,,,0.00,Rainwise IP-100,2013-06-07 09:11:00,
2013-06-07 05:19:00,51.0,38.0,30.39,NNW,337,0.0,0.0,61,0.00,,,0.00,Rainwise IP-100,2013-06-07 09:19:00,
2013-06-07 05:24:00,51.0,38.0,30.39,NNW,337,0.0,0.0,60,0.00,,,0.00,Rainwise IP-100,2013-06-07 09:24:00,
2013-06-07 05:29:00,51.0,38.0,30.39,NNW,337,0.0,0.0,60,0.00,,,0.00,Rainwise IP-100,2013-06-07 09:29:00,
2013-06-07 05:34:00,51.0,38.0,30.38,NNW,337,0.0,0.0,60,0.00,,,0.00,Rainwise IP-100,2013-06-07 09:34:00,
2013-06-07 05:39:00,51.0,38.0,30.39,NNW,337,0.0,0.0,60,0.00,,,0.00,Rainwise IP-100,2013-06-07 09:39:00,
2013-06-07 05:44:00,51.0,38.0,30.39,NNW,337,0.0,0.0,60,0.00,,,0.00,Rainwise IP-100,2013-06-07 09:44:00,
2013-06-07 05:49:00,51.0,38.0,30.38,NNW,337,0.0,0.0,60,0.00,,,0.00,Rainwise IP-100,2013-06-07 09:49:00,
2013-06-07 05:54:00,51.0,38.0,30.38,North,360,0.0,0.0,60,0.00,,,0.00,Rainwise IP-100,2013-06-07 09:54:00,
2013-06-07 05:59:00,51.0,38.0,30.38,North,360,0.0,0.0,60,0.00,,,0.00,Rainwise IP-100,2013-06-07 09:59:00,
2013-06-07 06:04:00,51.0,37.0,30.39,North,360,0.0,0.0,59,0.00,,,0.00,Rainwise IP-100,2013-06-07 10:04:00,
2013-06-07 06:09:00,51.0,37.0,30.39,ESE,112,0.0,0.0,59,0.00,,,0.00,Rainwise IP-100,2013-06-07 10:09:00,
2013-06-07 06:14:00,51.0,37.0,30.39,ESE,112,0.0,0.0,59,0.00,,,0.00,Rainwise IP-100,2013-06-07 10:14:00,
2013-06-07 06:19:00,52.0,38.0,30.39,ESE,112,0.0,0.0,60,0.00,,,0.00,Rainwise IP-100,2013-06-07 10:19:00,
2013-06-07 06:24:00,52.0,38.0,30.39,ESE,112,0.0,0.0,60,0.00,,,0.00,Rainwise IP-100,2013-06-07 10:24:00,
2013-06-07 06:29:00,52.0,38.0,30.39,ESE,112,0.0,0.0,60,0.00,,,0.00,Rainwise IP-100,2013-06-07 10:29:00,
2013-06-07 06:34:00,52.0,38.0,30.40,SE,135,2.0,4.0,60,0.00,,,0.00,Rainwise IP-100,2013-06-07 10:34:00,
2013-06-07 06:39:00,52.0,39.0,30.40,ESE,112,2.0,5.0,61,0.00,,,0.00,Rainwise IP-100,2013-06-07 10:39:00,
2013-06-07 06:57:00,53.0,42.0,30.41,ESE,112,4.0,4.0,68,0.00,,,0.00,Rainwise IP-100,2013-06-07 10:57:00,
2013-06-07 07:02:00,52.0,40.0,30.41,ESE,112,0.0,4.0,63,0.00,,,0.00,Rainwise IP-100,2013-06-07 11:02:00,
2013-06-07 07:11:00,52.0,40.0,30.41,ENE,67,0.0,3.0,63,0.00,,,0.00,Rainwise IP-100,2013-06-07 11:11:00,
2013-06-07 07:16:00,53.0,41.0,30.41,ESE,112,2.0,4.0,64,0.00,,,0.00,Rainwise IP-100,2013-06-07 11:16:00,
2013-06-07 07:22:00,53.0,41.0,30.40,East,90,1.0,5.0,64,0.00,,,0.00,Rainwise IP-100,2013-06-07 11:22:00,
2013-06-07 07:27:00,53.0,41.0,30.40,East,90,4.0,4.0,64,0.00,,,0.00,Rainwise IP-100,2013-06-07 11:27:00,
2013-06-07 07:32:00,53.0,41.0,30.40,East,90,2.0,5.0,64,0.00,,,0.00,Rainwise IP-100,2013-06-07 11:32:00,
2013-06-07 07:37:00,53.0,41.0,30.39,ESE,112,6.0,7.0,65,0.00,,,0.00,Rainwise IP-100,2013-06-07 11:37:00,
2013-06-07 07:42:00,53.0,41.0,30.39,ESE,112,6.0,6.0,65,0.00,,,0.00,Rainwise IP-100,2013-06-07 11:42:00,
2013-06-07 07:47:00,53.0,41.0,30.40,ESE,112,3.0,7.0,65,0.00,,,0.00,Rainwise IP-100,2013-06-07 11:47:00,
2013-06-07 07:52:00,53.0,41.0,30.41,East,90,0.0,4.0,65,0.00,,,0.00,Rainwise IP-100,2013-06-07 11:52:00,
2013-06-07 07:57:00,53.0,41.0,30.41,ENE,67,2.0,3.0,65,0.00,,,0.00,Rainwise IP-100,2013-06-07 11:57:00,
2013-06-07 08:02:00,53.0,41.0,30.41,ENE,67,5.0,6.0,65,0.00,,,0.00,Rainwise IP-100,2013-06-07 12:02:00,
2013-06-07 08:07:00,53.0,41.0,30.40,ENE,67,6.0,7.0,66,0.00,,,0.00,Rainwise IP-100,2013-06-07 12:07:00,
2013-06-07 08:12:00,53.0,42.0,30.40,ENE,67,5.0,6.0,67,0.00,,,0.00,Rainwise IP-100,2013-06-07 12:12:00,
2013-06-07 08:17:00,53.0,42.0,30.39,East,90,6.0,9.0,67,0.00,,,0.00,Rainwise IP-100,2013-06-07 12:17:00,
2013-06-07 08:22:00,54.0,44.0,30.39,ESE,112,4.0,9.0,69,0.00,,,0.00,Rainwise IP-100,2013-06-07 12:22:00,
2013-06-07 08:27:00,54.0,45.0,30.39,East,90,6.0,7.0,71,0.00,,,0.00,Rainwise IP-100,2013-06-07 12:27:00,
2013-06-07 08:32:00,54.0,45.0,30.40,East,90,3.0,6.0,71,0.00,,,0.00,Rainwise IP-100,2013-06-07 12:32:00,
2013-06-07 08:37:00,54.0,45.0,30.41,ENE,67,6.0,7.0,71,0.00,,,0.00,Rainwise IP-100,2013-06-07 12:37:00,
2013-06-07 08:42:00,54.0,45.0,30.41,ESE,112,7.0,7.0,71,0.00,,,0.00,Rainwise IP-100,2013-06-07 12:42:00,
2013-06-07 08:47:00,54.0,45.0,30.40,ESE,112,9.0,9.0,71,0.00,,,0.00,Rainwise IP-100,2013-06-07 12:47:00,
2013-06-07 08:52:00,54.0,45.0,30.41,SE,135,9.0,10.0,72,0.00,,,0.00,Rainwise IP-100,2013-06-07 12:52:00,
2013-06-07 08:57:00,55.0,47.0,30.41,SE,135,9.0,12.0,73,0.00,,,0.00,Rainwise IP-100,2013-06-07 12:57:00,
2013-06-07 09:02:00,55.0,47.0,30.41,SSE,157,9.0,10.0,73,0.00,,,0.00,Rainwise IP-100,2013-06-07 13:02:00,
2013-06-07 09:07:00,55.0,47.0,30.40,SE,135,11.0,11.0,73,0.00,,,0.00,Rainwise IP-100,2013-06-07 13:07:00,
2013-06-07 09:12:00,55.0,47.0,30.40,SE,135,10.0,12.0,73,0.00,,,0.00,Rainwise IP-100,2013-06-07 13:12:00,
2013-06-07 09:17:00,56.0,47.5,30.40,ESE,112,10.0,12.0,74,0.00,,,0.00,Rainwise IP-100,2013-06-07 13:17:00,
2013-06-07 09:22:00,56.0,47.5,30.40,SE,135,11.0,12.0,74,0.00,,,0.00,Rainwise IP-100,2013-06-07 13:22:00,
2013-06-07 09:27:00,56.0,47.5,30.41,SE,135,10.0,13.0,74,0.00,,,0.00,Rainwise IP-100,2013-06-07 13:27:00,
2013-06-07 09:32:00,56.0,47.5,30.41,SE,135,9.0,12.0,74,0.00,,,0.00,Rainwise IP-100,2013-06-07 13:32:00,
2013-06-07 09:37:00,56.0,47.5,30.41,SE,135,10.0,12.0,74,0.00,,,0.00,Rainwise IP-100,2013-06-07 13:37:00,
2013-06-07 09:42:00,56.0,47.5,30.41,SE,135,10.0,12.0,74,0.00,,,0.00,Rainwise IP-100,2013-06-07 13:42:00,
2013-06-07 09:47:00,56.0,47.5,30.41,SSE,157,7.0,12.0,74,0.00,,,0.00,Rainwise IP-100,2013-06-07 13:47:00,
2013-06-07 09:52:00,56.0,47.5,30.41,ESE,112,9.0,10.0,74,0.00,,,0.00,Rainwise IP-100,2013-06-07 13:52:00,
2013-06-07 09:57:00,56.0,47.5,30.41,ESE,112,9.0,12.0,74,0.00,,,0.00,Rainwise IP-100,2013-06-07 13:57:00,
2013-06-07 10:02:00,56.0,47.5,30.41,SE,135,7.0,12.0,74,0.00,,,0.00,Rainwise IP-100,2013-06-07 14:02:00,
2013-06-07 10:07:00,56.0,47.5,30.41,SE,135,9.0,10.0,74,0.00,,,0.00,Rainwise IP-100,2013-06-07 14:07:00,
2013-06-07 10:13:00,56.0,47.5,30.41,SE,135,6.0,12.0,74,0.00,,,0.00,Rainwise IP-100,2013-06-07 14:13:00,
2013-06-07 10:18:00,56.0,47.5,30.41,ESE,112,9.0,10.0,74,0.00,,,0.00,Rainwise IP-100,2013-06-07 14:18:00,
2013-06-07 10:23:00,57.0,49.0,30.41,ESE,112,7.0,9.0,74,0.00,,,0.00,Rainwise IP-100,2013-06-07 14:23:00,
2013-06-07 10:28:00,57.0,49.0,30.41,ESE,112,6.0,9.0,74,0.00,,,0.00,Rainwise IP-100,2013-06-07 14:28:00,
2013-06-07 10:35:00,57.0,49.0,30.41,SE,135,5.0,6.0,74,0.00,,,0.00,Rainwise IP-100,2013-06-07 14:35:00,
2013-06-07 10:40:00,57.0,49.0,30.41,ESE,112,5.0,6.0,74,0.00,,,0.00,Rainwise IP-100,2013-06-07 14:40:00,
2013-06-07 10:45:00,57.0,49.0,30.41,SE,135,6.0,8.0,74,0.00,,,0.00,Rainwise IP-100,2013-06-07 14:45:00,
2013-06-07 10:50:00,57.0,49.0,30.41,ESE,112,4.0,8.0,74,0.00,,,0.00,Rainwise IP-100,2013-06-07 14:50:00,
2013-06-07 10:55:00,58.0,50.0,30.41,SE,135,4.0,6.0,74,0.00,,,0.00,Rainwise IP-100,2013-06-07 14:55:00,
2013-06-07 11:00:00,58.0,50.0,30.41,ESE,112,3.0,6.0,74,0.00,,,0.00,Rainwise IP-100,2013-06-07 15:00:00,
2013-06-07 11:05:00,58.0,50.0,30.41,ESE,112,5.0,9.0,74,0.00,,,0.00,Rainwise IP-100,2013-06-07 15:05:00,
2013-06-07 11:10:00,57.0,49.0,30.41,SE,135,5.0,7.0,74,0.00,,,0.00,Rainwise IP-100,2013-06-07 15:10:00,
2013-06-07 11:15:00,58.0,50.0,30.40,SSE,157,6.0,6.0,74,0.00,,,0.00,Rainwise IP-100,2013-06-07 15:15:00,
2013-06-07 11:20:00,58.0,50.0,30.40,SSE,157,5.0,6.0,74,0.00,,,0.00,Rainwise IP-100,2013-06-07 15:20:00,
2013-06-07 11:25:00,58.0,50.0,30.41,SSE,157,6.0,7.0,74,0.00,,,0.00,Rainwise IP-100,2013-06-07 15:25:00,
2013-06-07 11:30:00,58.0,50.0,30.40,SSE,157,4.0,7.0,74,0.00,,,0.00,Rainwise IP-100,2013-06-07 15:30:00,
2013-06-07 11:35:00,58.0,50.0,30.40,SSE,157,5.0,6.0,74,0.00,,,0.00,Rainwise IP-100,2013-06-07 15:35:00,
2013-06-07 11:40:00,58.0,50.0,30.40,SSE,157,3.0,7.0,74,0.00,,,0.00,Rainwise IP-100,2013-06-07 15:40:00,
2013-06-07 11:45:00,58.0,50.0,30.40,SE,135,8.0,9.0,74,0.00,,,0.00,Rainwise IP-100,2013-06-07 15:45:00,
2013-06-07 11:50:00,58.0,50.0,30.40,SSE,157,7.0,10.0,74,0.00,,,0.00,Rainwise IP-100,2013-06-07 15:50:00,
2013-06-07 11:55:00,58.0,50.0,30.40,SSE,157,6.0,8.0,74,0.00,,,0.00,Rainwise IP-100,2013-06-07 15:55:00,
2013-06-07 12:00:00,58.0,50.0,30.40,SSE,157,10.0,11.0,74,0.00,,,0.00,Rainwise IP-100,2013-06-07 16:00:00,
2013-06-07 12:05:00,57.0,49.0,30.40,SE,135,7.0,12.0,74,0.00,,,0.00,Rainwise IP-100,2013-06-07 16:05:00,
2013-06-07 12:10:00,57.0,49.0,30.40,SSE,157,7.0,13.0,74,0.00,,,0.00,Rainwise IP-100,2013-06-07 16:10:00,
2013-06-07 12:15:00,58.0,50.0,30.40,SE,135,6.0,12.0,74,0.00,,,0.00,Rainwise IP-100,2013-06-07 16:15:00,
2013-06-07 12:20:00,57.0,49.0,30.40,SSE,157,10.0,13.0,74,0.00,,,0.00,Rainwise IP-100,2013-06-07 16:20:00,
2013-06-07 12:25:00,57.0,49.0,30.40,SSE,157,11.0,15.0,74,0.00,,,0.00,Rainwise IP-100,2013-06-07 16:25:00,
2013-06-07 12:30:00,57.0,48.0,30.40,SSE,157,10.0,12.0,73,0.00,,,0.00,Rainwise IP-100,2013-06-07 16:30:00,
2013-06-07 12:35:00,57.0,49.0,30.40,SSE,157,8.0,12.0,74,0.00,,,0.00,Rainwise IP-100,2013-06-07 16:35:00,
2013-06-07 12:40:00,57.0,49.0,30.40,SSE,157,7.0,10.0,74,0.00,,,0.00,Rainwise IP-100,2013-06-07 16:40:00,
2013-06-07 12:45:00,57.0,49.0,30.40,SSE,157,12.0,13.0,74,0.00,,,0.00,Rainwise IP-100,2013-06-07 16:45:00,
2013-06-07 12:50:00,57.0,49.0,30.40,SE,135,9.0,13.0,74,0.00,,,0.00,Rainwise IP-100,2013-06-07 16:50:00,
2013-06-07 12:58:00,57.0,49.0,30.39,SSE,157,10.0,10.0,74,0.00,,,0.00,Rainwise IP-100,2013-06-07 16:58:00,
2013-06-07 13:03:00,57.0,49.0,30.39,SSE,157,9.0,11.0,74,0.00,,,0.00,Rainwise IP-100,2013-06-07 17:03:00,
2013-06-07 13:09:00,58.0,50.0,30.40,SSE,157,10.0,11.0,74,0.00,,,0.00,Rainwise IP-100,2013-06-07 17:09:00,
2013-06-07 13:14:00,58.0,50.0,30.39,SSE,157,8.0,10.0,74,0.00,,,0.00,Rainwise IP-100,2013-06-07 17:14:00,
2013-06-07 13:19:00,58.0,50.0,30.39,SSE,157,7.0,10.0,74,0.00,,,0.00,Rainwise IP-100,2013-06-07 17:19:00,
2013-06-07 13:24:00,58.0,50.0,30.39,SE,135,6.0,10.0,74,0.00,,,0.00,Rainwise IP-100,2013-06-07 17:24:00,
2013-06-07 13:29:00,58.0,50.0,30.39,SSE,157,6.0,6.0,74,0.00,,,0.00,Rainwise IP-100,2013-06-07 17:29:00,
2013-06-07 13:34:00,58.0,50.0,30.39,SSE,157,7.0,7.0,74,0.00,,,0.00,Rainwise IP-100,2013-06-07 17:34:00,
2013-06-07 13:39:00,58.0,50.0,30.39,SSE,157,7.0,10.0,74,0.00,,,0.00,Rainwise IP-100,2013-06-07 17:39:00,
2013-06-07 13:44:00,58.0,50.0,30.39,SE,135,8.0,9.0,74,0.00,,,0.00,Rainwise IP-100,2013-06-07 17:44:00,
2013-06-07 13:49:00,58.0,50.0,30.38,SE,135,8.0,10.0,74,0.00,,,0.00,Rainwise IP-100,2013-06-07 17:49:00,
2013-06-07 13:54:00,57.0,49.0,30.38,SSE,157,9.0,10.0,74,0.00,,,0.00,Rainwise IP-100,2013-06-07 17:54:00,
2013-06-07 13:59:00,57.0,49.0,30.38,SSE,157,8.0,10.0,74,0.00,,,0.00,Rainwise IP-100,2013-06-07 17:59:00,
2013-06-07 14:04:00,57.0,49.0,30.38,SSE,157,7.0,10.0,74,0.00,,,0.00,Rainwise IP-100,2013-06-07 18:04:00,
2013-06-07 14:09:00,57.0,49.0,30.38,SSE,157,10.0,10.0,74,0.00,,,0.00,Rainwise IP-100,2013-06-07 18:09:00,
2013-06-07 14:14:00,57.0,49.0,30.38,SSE,157,9.0,12.0,74,0.00,,,0.00,Rainwise IP-100,2013-06-07 18:14:00,
2013-06-07 14:19:00,57.0,49.0,30.38,SSE,157,6.0,10.0,74,0.00,,,0.00,Rainwise IP-100,2013-06-07 18:19:00,
2013-06-07 14:24:00,57.0,49.0,30.38,SSE,157,5.0,10.0,74,0.00,,,0.00,Rainwise IP-100,2013-06-07 18:24:00,
2013-06-07 14:29:00,57.0,49.0,30.38,SSE,157,4.0,10.0,74,0.00,,,0.00,Rainwise IP-100,2013-06-07 18:29:00,
2013-06-07 14:34:00,57.0,49.0,30.38,SSW,202,0.0,9.0,74,0.00,,,0.00,Rainwise IP-100,2013-06-07 18:34:00,
2013-06-07 14:39:00,57.0,49.0,30.38,SSE,157,9.0,9.0,74,0.00,,,0.00,Rainwise IP-100,2013-06-07 18:39:00,
2013-06-07 14:44:00,57.0,49.0,30.38,SSE,157,7.0,12.0,74,0.00,,,0.00,Rainwise IP-100,2013-06-07 18:44:00,
2013-06-07 14:53:00,57.0,49.0,30.38,SSE,157,12.0,14.0,74,0.00,,,0.00,Rainwise IP-100,2013-06-07 18:53:00,
2013-06-07 15:01:00,57.0,49.0,30.39,SE,135,10.0,13.0,74,0.00,,,0.00,Rainwise IP-100,2013-06-07 19:01:00,
2013-06-07 15:06:00,56.0,47.5,30.39,SE,135,11.0,13.0,74,0.00,,,0.00,Rainwise IP-100,2013-06-07 19:06:00,
2013-06-07 15:11:00,56.0,47.5,30.39,SSE,157,10.0,13.0,74,0.00,,,0.00,Rainwise IP-100,2013-06-07 19:11:00,
2013-06-07 15:16:00,56.0,47.5,30.39,SSE,157,8.0,12.0,74,0.00,,,0.00,Rainwise IP-100,2013-06-07 19:16:00,
2013-06-07 15:21:00,56.0,47.5,30.39,SSE,157,10.0,14.0,74,0.00,,,0.00,Rainwise IP-100,2013-06-07 19:21:00,
2013-06-07 15:26:00,56.0,47.5,30.38,SSE,157,8.0,13.0,74,0.00,,,0.00,Rainwise IP-100,2013-06-07 19:26:00,
2013-06-07 15:31:00,56.0,47.5,30.38,SE,135,10.0,14.0,74,0.00,,,0.00,Rainwise IP-100,2013-06-07 19:31:00,
2013-06-07 15:36:00,56.0,47.5,30.38,SE,135,10.0,12.0,74,0.00,,,0.00,Rainwise IP-100,2013-06-07 19:36:00,
2013-06-07 15:41:00,56.0,47.5,30.38,SSE,157,12.0,13.0,74,0.00,,,0.00,Rainwise IP-100,2013-06-07 19:41:00,
2013-06-07 15:46:00,56.0,47.5,30.38,SSE,157,9.0,13.0,74,0.00,,,0.00,Rainwise IP-100,2013-06-07 19:46:00,
2013-06-07 15:51:00,56.0,47.5,30.38,SSE,157,8.0,14.0,74,0.00,,,0.00,Rainwise IP-100,2013-06-07 19:51:00,
2013-06-07 15:56:00,56.0,47.5,30.38,SSE,157,8.0,11.0,74,0.00,,,0.00,Rainwise IP-100,2013-06-07 19:56:00,
2013-06-07 16:01:00,56.0,47.5,30.38,SSE,157,9.0,12.0,74,0.00,,,0.00,Rainwise IP-100,2013-06-07 20:01:00,
2013-06-07 16:06:00,56.0,47.5,30.38,SSE,157,9.0,10.0,74,0.00,,,0.00,Rainwise IP-100,2013-06-07 20:06:00,
2013-06-07 16:11:00,55.0,47.5,30.38,SSE,157,7.0,11.0,74,0.00,,,0.00,Rainwise IP-100,2013-06-07 20:11:00,
2013-06-07 16:16:00,55.0,47.5,30.38,SE,135,10.0,12.0,74,0.00,,,0.00,Rainwise IP-100,2013-06-07 20:16:00,
2013-06-07 16:21:00,55.0,47.5,30.38,SSE,157,11.0,12.0,74,0.00,,,0.00,Rainwise IP-100,2013-06-07 20:21:00,
2013-06-07 16:26:00,55.0,47.5,30.38,SE,135,11.0,12.0,74,0.00,,,0.00,Rainwise IP-100,2013-06-07 20:26:00,
2013-06-07 16:31:00,55.0,47.5,30.38,SE,135,10.0,12.0,74,0.00,,,0.00,Rainwise IP-100,2013-06-07 20:31:00,
2013-06-07 16:36:00,55.0,47.5,30.38,ESE,112,10.0,12.0,74,0.00,,,0.00,Rainwise IP-100,2013-06-07 20:36:00,
2013-06-07 16:41:00,54.0,46.0,30.38,SE,135,9.0,12.0,73,0.00,,,0.00,Rainwise IP-100,2013-06-07 20:41:00,
2013-06-07 16:46:00,54.0,46.0,30.38,SE,135,11.0,12.0,73,0.00,,,0.00,Rainwise IP-100,2013-06-07 20:46:00,
2013-06-07 16:51:00,54.0,46.0,30.38,SE,135,9.0,12.0,73,0.00,,,0.00,Rainwise IP-100,2013-06-07 20:51:00,
2013-06-07 16:56:00,54.0,46.0,30.38,East,90,5.0,12.0,73,0.00,,,0.00,Rainwise IP-100,2013-06-07 20:56:00,
2013-06-07 17:01:00,53.0,44.0,30.38,SE,135,4.0,9.0,72,0.00,,,0.00,Rainwise IP-100,2013-06-07 21:01:00,
2013-06-07 17:06:00,54.0,46.0,30.37,ESE,112,3.0,6.0,73,0.00,,,0.00,Rainwise IP-100,2013-06-07 21:06:00,
2013-06-07 17:11:00,54.0,46.0,30.37,ESE,112,4.0,8.0,73,0.00,,,0.00,Rainwise IP-100,2013-06-07 21:11:00,
2013-06-07 17:16:00,54.0,46.0,30.37,ESE,112,8.0,8.0,73,0.00,,,0.00,Rainwise IP-100,2013-06-07 21:16:00,
2013-06-07 17:21:00,54.0,46.0,30.36,ESE,112,8.0,9.0,73,0.00,,,0.00,Rainwise IP-100,2013-06-07 21:21:00,
2013-06-07 17:26:00,54.0,46.0,30.36,ESE,112,2.0,10.0,73,0.00,,,0.00,Rainwise IP-100,2013-06-07 21:26:00,
2013-06-07 17:31:00,54.0,46.0,30.36,East,90,6.0,9.0,73,0.00,,,0.00,Rainwise IP-100,2013-06-07 21:31:00,
2013-06-07 17:36:00,54.0,46.0,30.36,East,90,6.0,10.0,73,0.00,,,0.00,Rainwise IP-100,2013-06-07 21:36:00,
2013-06-07 17:41:00,53.0,44.0,30.36,East,90,7.0,9.0,72,0.00,,,0.00,Rainwise IP-100,2013-06-07 21:41:00,
2013-06-07 17:46:00,53.0,44.0,30.35,ENE,67,8.0,9.0,72,0.00,,,0.00,Rainwise IP-100,2013-06-07 21:46:00,
2013-06-07 17:51:00,53.0,44.0,30.35,ENE,67,7.0,10.0,72,0.00,,,0.00,Rainwise IP-100,2013-06-07 21:51:00,
2013-06-07 17:56:00,53.0,44.0,30.35,East,90,7.0,11.0,72,0.00,,,0.00,Rainwise IP-100,2013-06-07 21:56:00,
2013-06-07 18:02:00,53.0,43.0,30.35,ENE,67,10.0,11.0,71,0.00,,,0.00,Rainwise IP-100,2013-06-07 22:02:00,
2013-06-07 18:07:00,52.0,42.0,30.35,East,90,10.0,12.0,69,0.00,,,0.00,Rainwise IP-100,2013-06-07 22:07:00,
2013-06-07 18:12:00,52.0,42.0,30.35,ENE,67,7.0,12.0,68,0.00,,,0.00,Rainwise IP-100,2013-06-07 22:12:00,
2013-06-07 18:17:00,52.0,41.0,30.35,ESE,112,7.0,11.0,67,0.00,,,0.00,Rainwise IP-100,2013-06-07 22:17:00,
2013-06-07 18:22:00,52.0,41.0,30.35,ENE,67,9.0,10.0,66,0.00,,,0.00,Rainwise IP-100,2013-06-07 22:22:00,
2013-06-07 18:27:00,52.0,41.0,30.35,ENE,67,5.0,9.0,66,0.00,,,0.00,Rainwise IP-100,2013-06-07 22:27:00,
2013-06-07 18:32:00,51.0,40.0,30.34,ENE,67,7.0,9.0,65,0.00,,,0.00,Rainwise IP-100,2013-06-07 22:32:00,
2013-06-07 18:37:00,51.0,39.0,30.34,East,90,6.0,9.0,63,0.00,,,0.00,Rainwise IP-100,2013-06-07 22:37:00,
2013-06-07 18:42:00,51.0,39.0,30.34,East,90,4.0,8.0,63,0.00,,,0.00,Rainwise IP-100,2013-06-07 22:42:00,
2013-06-07 18:47:00,51.0,39.0,30.34,ENE,67,4.0,9.0,63,0.00,,,0.00,Rainwise IP-100,2013-06-07 22:47:00,
2013-06-07 18:52:00,51.0,39.0,30.34,East,90,5.0,9.0,62,0.00,,,0.00,Rainwise IP-100,2013-06-07 22:52:00,
2013-06-07 18:58:00,51.0,39.0,30.34,ENE,67,3.0,6.0,62,0.00,,,0.00,Rainwise IP-100,2013-06-07 22:58:00,
2013-06-07 19:03:00,52.0,42.0,30.34,ENE,67,1.0,4.0,68,0.00,,,0.00,Rainwise IP-100,2013-06-07 23:03:00,
2013-06-07 19:08:00,52.0,42.0,30.34,NNE,22,0.0,3.0,68,0.00,,,0.00,Rainwise IP-100,2013-06-07 23:08:00,
2013-06-07 19:13:00,52.0,42.0,30.33,North,360,4.0,6.0,68,0.00,,,0.00,Rainwise IP-100,2013-06-07 23:13:00,
2013-06-07 19:18:00,52.0,41.0,30.33,NNE,22,4.0,6.0,67,0.00,,,0.00,Rainwise IP-100,2013-06-07 23:18:00,
2013-06-07 19:23:00,52.0,41.0,30.33,ENE,67,4.0,7.0,67,0.00,,,0.00,Rainwise IP-100,2013-06-07 23:23:00,
2013-06-07 19:28:00,52.0,41.0,30.33,ENE,67,3.0,7.0,67,0.00,,,0.00,Rainwise IP-100,2013-06-07 23:28:00,
2013-06-07 19:33:00,52.0,41.0,30.33,ENE,67,1.0,4.0,67,0.00,,,0.00,Rainwise IP-100,2013-06-07 23:33:00,
2013-06-07 19:38:00,52.0,41.0,30.33,NE,45,4.0,6.0,67,0.00,,,0.00,Rainwise IP-100,2013-06-07 23:38:00,
2013-06-07 19:43:00,52.0,41.0,30.33,NE,45,3.0,6.0,67,0.00,,,0.00,Rainwise IP-100,2013-06-07 23:43:00,
2013-06-07 19:48:00,52.0,41.0,30.33,ENE,67,2.0,5.0,67,0.00,,,0.00,Rainwise IP-100,2013-06-07 23:48:00,
2013-06-07 19:53:00,52.0,41.0,30.33,NE,45,6.0,7.0,67,0.00,,,0.00,Rainwise IP-100,2013-06-07 23:53:00,
2013-06-07 19:58:00,52.0,41.0,30.32,ENE,67,7.0,10.0,67,0.00,,,0.00,Rainwise IP-100,2013-06-07 23:58:00,
2013-06-07 20:03:00,52.0,41.0,30.32,NE,45,7.0,9.0,67,0.00,,,0.00,Rainwise IP-100,2013-06-08 00:03:00,
2013-06-07 20:08:00,52.0,41.0,30.32,NE,45,6.0,12.0,67,0.00,,,0.00,Rainwise IP-100,2013-06-08 00:08:00,
2013-06-07 20:15:00,52.0,38.0,30.32,ENE,67,6.0,8.0,60,0.00,,,0.00,Rainwise IP-100,2013-06-08 00:15:00,
2013-06-07 20:20:00,52.0,38.0,30.32,ENE,67,4.0,7.0,60,0.00,,,0.00,Rainwise IP-100,2013-06-08 00:20:00,
2013-06-07 20:25:00,52.0,38.0,30.32,NNE,22,3.0,6.0,59,0.00,,,0.00,Rainwise IP-100,2013-06-08 00:25:00,
2013-06-07 20:30:00,52.0,38.0,30.32,ENE,67,4.0,7.0,59,0.00,,,0.00,Rainwise IP-100,2013-06-08 00:30:00,
2013-06-07 20:35:00,52.0,38.0,30.32,ENE,67,6.0,6.0,59,0.06,,,0.01,Rainwise IP-100,2013-06-08 00:35:00,
2013-06-07 20:40:00,52.0,38.0,30.31,ENE,67,7.0,7.0,59,0.06,,,0.01,Rainwise IP-100,2013-06-08 00:40:00,
2013-06-07 20:45:00,52.0,38.0,30.31,ENE,67,7.0,9.0,59,0.00,,,0.01,Rainwise IP-100,2013-06-08 00:45:00,
2013-06-07 20:50:00,52.0,38.0,30.31,ENE,67,6.0,9.0,59,0.00,,,0.01,Rainwise IP-100,2013-06-08 00:50:00,
2013-06-07 20:55:00,52.0,38.0,30.31,ENE,67,8.0,10.0,59,0.06,,,0.02,Rainwise IP-100,2013-06-08 00:55:00,
2013-06-07 21:00:00,52.0,38.0,30.31,ENE,67,7.0,10.0,59,0.06,,,0.02,Rainwise IP-100,2013-06-08 01:00:00,
2013-06-07 21:05:00,52.0,38.0,30.31,East,90,10.0,13.0,60,0.00,,,0.02,Rainwise IP-100,2013-06-08 01:05:00,
2013-06-07 21:10:00,52.0,39.0,30.31,SE,135,5.0,13.0,61,0.00,,,0.02,Rainwise IP-100,2013-06-08 01:10:00,
2013-06-07 21:15:00,53.0,39.0,30.31,ESE,112,9.0,13.0,61,0.06,,,0.03,Rainwise IP-100,2013-06-08 01:15:00,
2013-06-07 21:20:00,53.0,40.0,30.31,East,90,11.0,15.0,62,0.06,,,0.03,Rainwise IP-100,2013-06-08 01:20:00,
2013-06-07 21:25:00,52.0,40.0,30.31,East,90,13.0,15.0,63,0.06,,,0.04,Rainwise IP-100,2013-06-08 01:25:00,
2013-06-07 21:30:00,52.0,40.0,30.31,ESE,112,12.0,15.0,65,0.06,,,0.04,Rainwise IP-100,2013-06-08 01:30:00,
2013-06-07 21:35:00,52.0,40.0,30.31,East,90,11.0,14.0,65,0.00,,,0.05,Rainwise IP-100,2013-06-08 01:35:00,
2013-06-07 21:40:00,52.0,41.0,30.31,ESE,112,11.0,16.0,66,0.06,,,0.05,Rainwise IP-100,2013-06-08 01:40:00,
2013-06-07 21:45:00,52.0,41.0,30.31,ESE,112,8.0,16.0,66,0.06,,,0.05,Rainwise IP-100,2013-06-08 01:45:00,
2013-06-07 21:50:00,52.0,41.0,30.31,ESE,112,13.0,14.0,66,0.06,,,0.06,Rainwise IP-100,2013-06-08 01:50:00,
2013-06-07 21:55:00,52.0,41.0,30.31,East,90,13.0,15.0,66,0.06,,,0.06,Rainwise IP-100,2013-06-08 01:55:00,
2013-06-07 22:00:00,52.0,41.0,30.30,East,90,15.0,15.0,66,0.06,,,0.07,Rainwise IP-100,2013-06-08 02:00:00,
2013-06-07 22:05:00,52.0,40.0,30.30,East,90,13.0,15.0,65,0.06,,,0.08,Rainwise IP-100,2013-06-08 02:05:00,
2013-06-07 22:10:00,52.0,40.0,30.30,East,90,10.0,16.0,65,0.06,,,0.08,Rainwise IP-100,2013-06-08 02:10:00,
2013-06-07 22:15:00,52.0,40.0,30.30,ENE,67,10.0,14.0,65,0.06,,,0.08,Rainwise IP-100,2013-06-08 02:15:00,
2013-06-07 22:20:00,51.0,39.0,30.29,ENE,67,10.0,15.0,64,0.06,,,0.09,Rainwise IP-100,2013-06-08 02:20:00,
2013-06-07 22:25:00,51.0,39.0,30.29,ENE,67,13.0,14.0,63,0.12,,,0.10,Rainwise IP-100,2013-06-08 02:25:00,
2013-06-07 22:30:00,51.0,39.0,30.28,East,90,9.0,13.0,63,0.06,,,0.10,Rainwise IP-100,2013-06-08 02:30:00,
2013-06-07 22:35:00,51.0,39.0,30.28,ENE,67,11.0,15.0,62,0.06,,,0.11,Rainwise IP-100,2013-06-08 02:35:00,
2013-06-07 22:40:00,51.0,39.0,30.28,ENE,67,9.0,12.0,62,0.06,,,0.11,Rainwise IP-100,2013-06-08 02:40:00,
2013-06-07 22:45:00,51.0,38.0,30.28,ENE,67,10.0,11.0,61,0.06,,,0.12,Rainwise IP-100,2013-06-08 02:45:00,
2013-06-07 22:50:00,51.0,38.0,30.28,East,90,7.0,13.0,60,0.12,,,0.13,Rainwise IP-100,2013-06-08 02:50:00,
2013-06-07 22:55:00,51.0,38.0,30.27,ENE,67,6.0,13.0,60,0.06,,,0.13,Rainwise IP-100,2013-06-08 02:55:00,
2013-06-07 23:00:00,51.0,38.0,30.27,ENE,67,10.0,13.0,60,0.06,,,0.14,Rainwise IP-100,2013-06-08 03:00:00,
2013-06-07 23:05:00,51.0,37.0,30.27,ENE,67,9.0,14.0,59,0.06,,,0.14,Rainwise IP-100,2013-06-08 03:05:00,
2013-06-07 23:10:00,51.0,37.0,30.27,ENE,67,10.0,12.0,58,0.00,,,0.15,Rainwise IP-100,2013-06-08 03:10:00,
2013-06-07 23:15:00,51.0,37.0,30.27,ENE,67,10.0,13.0,58,0.06,,,0.15,Rainwise IP-100,2013-06-08 03:15:00,
2013-06-07 23:20:00,51.0,37.0,30.26,ENE,67,10.0,13.0,57,0.06,,,0.15,Rainwise IP-100,2013-06-08 03:20:00,
2013-06-07 23:25:00,51.0,37.0,30.27,ENE,67,7.0,13.0,57,0.06,,,0.16,Rainwise IP-100,2013-06-08 03:25:00,
2013-06-07 23:30:00,51.0,37.0,30.27,ENE,67,7.0,12.0,57,0.06,,,0.16,Rainwise IP-100,2013-06-08 03:30:00,
2013-06-07 23:35:00,52.0,37.0,30.27,SE,135,6.0,13.0,57,0.06,,,0.17,Rainwise IP-100,2013-06-08 03:35:00,
2013-06-07 23:40:00,52.0,37.0,30.26,ENE,67,9.0,13.0,56,0.12,,,0.18,Rainwise IP-100,2013-06-08 03:40:00,
2013-06-07 23:45:00,52.0,37.0,30.26,East,90,11.0,13.0,56,0.18,,,0.20,Rainwise IP-100,2013-06-08 03:45:00,
2013-06-07 23:50:00,52.0,36.0,30.25,ENE,67,9.0,14.0,54,0.18,,,0.21,Rainwise IP-100,2013-06-08 03:50:00,
2013-06-07 23:55:00,52.0,36.0,30.25,ESE,112,6.0,12.0,54,0.12,,,0.22,Rainwise IP-100,2013-06-08 03:55:00,